Погода в Сёйдауркроукюре

Исландия     65°44′47″N   19°38′31″W
темп.,
°C
ветер,
м/с
пор.,
м/с
влажн.,
%
обл.,
%
осадки,
мм/ч
давл.,
гПа
погр.,
м
19 января, ср
ср1900:00−6с799599 2.4 1011510
03:00−7ссз5794100 1.4 1018462
06:00−12юз2292100 1.5 102486
09:00−11ююз339193 0.0 102739
12:00−13ю579783 0.0 103086
15:00−12ю679199 0.0 103191
18:00−12ю6887100 0.0 103292
21:00−10ю8118450 0.0 1031145
20 января, чт
чт2000:00−8ю8128290 0.0 1030150
03:00−3ю91189100 0.0 1028222
06:00−2ю91296100 0.6 1026285
09:000ю91286100 0.1 1024218
12:00+1ю101495100 0.1 1020286
15:00+2ю111597100 0.0 1018242
18:00+3ю111594100 0.0 1016218
21:00+3ю111693100 0.0 1014224
21 января, пт
пт2100:00+4ю121979100 0.0 1011274
03:00+4ю12218291 0.0 1006397
06:00+4ю12218287 0.0 1002481
09:00+5ююз132492100 0.3 10001069
12:000юз17268390 0.6 10041397
15:00−1ююз16247884 0.0 10041230
18:000ююз12228094 0.0 10011358
21:00+1ююз13267996 0.1 9951558
22 января, сб
сб2200:000юз20338189 2.3 9901928
03:00−1юз172994100 0.7 9892097
06:00−2юз192978100 1.5 9891831
09:00−2юз172879100 0.1 9901928
12:00−3юз152893100 0.9 9902045
15:00−2юз152694100 1.4 9881998
18:00−2юз132494100 3.2 9871896
21:00−3юз152593100 1.7 9862049
23 января, вс
вс2300:00−5юз16259099 3.2 9882116
03:00−5юз17277399 0.3 9901878
06:00−5юз162679100 0.3 9921715
09:00−5юз142283100 0.1 9951523
12:00−5юз122084100 0.2 9971370
15:00−5юз101680100 0.2 9981039
18:00−5юз61289100 0.5 999836
21:00−4зюз91576100 0.9 1000982